{"data":{"norad_id":66843,"epoch":"2026-09-20T06:28:34.949280Z","epoch_age_seconds":103937,"freshness":"FRESH","line1":"1 66843U 25280Y   26263.26984895  .00004110  00000+0  35193-3 0  9993","line2":"2 66843  70.0017 203.7830 0002269 277.7959  82.2942 14.98340122 45226","mean_motion":14.98340122,"eccentricity":0.0002269,"inclination_deg":70.0017,"raan_deg":203.783,"arg_perigee_deg":277.7959,"mean_anomaly_deg":82.2942,"bstar":0.00035192999999999997,"rev_number":4522,"period_min":96.106349877214,"perigee_km":570.4475980059,"apogee_km":573.60158133529,"semimajor_km":6950.1615896706,"source":"CELESTRAK","updated_at":"2026-09-21T09:00:36.024232Z"}}